owner,sensor,date,latitude,longitude,air_pressure(mBar),qcFlag 
DISL,ioos:station:DISL:DISL:1,2019-05-01T00:40:00Z,30.2513,-88.0778,1020.319307,11111222 
DISL,ioos:station:DISL:DISL:1,2019-05-01T01:40:00Z,30.2513,-88.0778,1020.996585,11111222 
DISL,ioos:station:DISL:DISL:1,2019-05-01T02:40:00Z,30.2513,-88.0778,1019.980668,11111222 
DISL,ioos:station:DISL:DISL:1,2019-05-01T03:40:00Z,30.2513,-88.0778,1019.980668,11111222 
DISL,ioos:station:DISL:DISL:1,2019-05-01T04:40:00Z,30.2513,-88.0778,1019.642029,11111222 
DISL,ioos:station:DISL:DISL:1,2019-05-01T06:10:00Z,30.2513,-88.0778,1019.30339,11111222 
DISL,ioos:station:DISL:DISL:1,2019-05-01T06:40:00Z,30.2513,-88.0778,1018.626112,11111222 
DISL,ioos:station:DISL:DISL:1,2019-05-01T07:40:00Z,30.2513,-88.0778,1018.964751,11111222 
DISL,ioos:station:DISL:DISL:1,2019-05-01T08:40:00Z,30.2513,-88.0778,1018.626112,11111222 
DISL,ioos:station:DISL:DISL:1,2019-05-01T09:40:00Z,30.2513,-88.0778,1018.964751,11111222 
DISL,ioos:station:DISL:DISL:1,2019-05-01T10:40:00Z,30.2513,-88.0778,1019.642029,11111222 
DISL,ioos:station:DISL:DISL:1,2019-05-01T11:40:00Z,30.2513,-88.0778,1020.319307,11111222 
DISL,ioos:station:DISL:DISL:1,2019-05-01T12:40:00Z,30.2513,-88.0778,1020.996585,11111222 
DISL,ioos:station:DISL:DISL:1,2019-05-01T13:40:00Z,30.2513,-88.0778,1021.335224,11111222 
DISL,ioos:station:DISL:DISL:1,2019-05-01T14:40:00Z,30.2513,-88.0778,1022.351141,11111222 
DISL,ioos:station:DISL:DISL:1,2019-05-01T15:40:00Z,30.2513,-88.0778,1022.012502,11111222 
DISL,ioos:station:DISL:DISL:1,2019-05-01T16:40:00Z,30.2513,-88.0778,1022.012502,11111222 
DISL,ioos:station:DISL:DISL:1,2019-05-01T17:40:00Z,30.2513,-88.0778,1021.673863,11111222 
DISL,ioos:station:DISL:DISL:1,2019-05-01T18:40:00Z,30.2513,-88.0778,1021.335224,11111222 
DISL,ioos:station:DISL:DISL:1,2019-05-01T19:40:00Z,30.2513,-88.0778,1020.996585,11111222 
DISL,ioos:station:DISL:DISL:1,2019-05-01T20:40:00Z,30.2513,-88.0778,1020.657946,11111222 
DISL,ioos:station:DISL:DISL:1,2019-05-01T21:40:00Z,30.2513,-88.0778,1020.319307,11111222 
DISL,ioos:station:DISL:DISL:1,2019-05-01T22:40:00Z,30.2513,-88.0778,1020.319307,11111222 
DISL,ioos:station:DISL:DISL:1,2019-05-01T23:40:00Z,30.2513,-88.0778,1020.319307,11111222 
DISL,ioos:station:DISL:DISL:1,2019-05-02T00:40:00Z,30.2513,-88.0778,1020.319307,11111222 
DISL,ioos:station:DISL:DISL:1,2019-05-02T01:40:00Z,30.2513,-88.0778,1020.319307,11111222 
DISL,ioos:station:DISL:DISL:1,2019-05-02T02:40:00Z,30.2513,-88.0778,1019.980668,11111222 
DISL,ioos:station:DISL:DISL:1,2019-05-02T03:40:00Z,30.2513,-88.0778,1019.980668,11111222 
DISL,ioos:station:DISL:DISL:1,2019-05-02T05:10:00Z,30.2513,-88.0778,1019.30339,11111222 
DISL,ioos:station:DISL:DISL:1,2019-05-02T05:40:00Z,30.2513,-88.0778,1019.30339,11111222 
DISL,ioos:station:DISL:DISL:1,2019-05-02T06:40:00Z,30.2513,-88.0778,1018.626112,11111222 
DISL,ioos:station:DISL:DISL:1,2019-05-02T07:40:00Z,30.2513,-88.0778,1018.626112,11111222 
DISL,ioos:station:DISL:DISL:1,2019-05-02T08:40:00Z,30.2513,-88.0778,1018.626112,11111222 
DISL,ioos:station:DISL:DISL:1,2019-05-02T10:10:00Z,30.2513,-88.0778,1018.626112,11111222 
DISL,ioos:station:DISL:DISL:1,2019-05-02T11:10:00Z,30.2513,-88.0778,1018.626112,11111222 
DISL,ioos:station:DISL:DISL:1,2019-05-02T12:10:00Z,30.2513,-88.0778,1019.30339,11111222 
DISL,ioos:station:DISL:DISL:1,2019-05-02T13:10:00Z,30.2513,-88.0778,1019.30339,11111222 
DISL,ioos:station:DISL:DISL:1,2019-05-02T14:10:00Z,30.2513,-88.0778,1019.642029,11111222 
DISL,ioos:station:DISL:DISL:1,2019-05-02T15:10:00Z,30.2513,-88.0778,1020.319307,11111222 
DISL,ioos:station:DISL:DISL:1,2019-05-02T16:10:00Z,30.2513,-88.0778,1020.657946,11111222 
DISL,ioos:station:DISL:DISL:1,2019-05-02T17:10:00Z,30.2513,-88.0778,1020.319307,11111222 
DISL,ioos:station:DISL:DISL:1,2019-05-02T18:10:00Z,30.2513,-88.0778,1020.657946,11111222 
DISL,ioos:station:DISL:DISL:1,2019-05-02T19:10:00Z,30.2513,-88.0778,1019.980668,11111222 
DISL,ioos:station:DISL:DISL:1,2019-05-02T20:10:00Z,30.2513,-88.0778,1019.30339,11111222 
DISL,ioos:station:DISL:DISL:1,2019-05-02T21:10:00Z,30.2513,-88.0778,1016.932917,11111222 
DISL,ioos:station:DISL:DISL:1,2019-05-02T22:10:00Z,30.2513,-88.0778,1016.255639,11111222 
DISL,ioos:station:DISL:DISL:1,2019-05-02T23:10:00Z,30.2513,-88.0778,1016.255639,11111222 
DISL,ioos:station:DISL:DISL:1,2019-05-02T23:40:00Z,30.2513,-88.0778,1016.255639,11111222 
DISL,ioos:station:DISL:DISL:1,2019-05-03T01:10:00Z,30.2513,-88.0778,1016.594278,11111222 
DISL,ioos:station:DISL:DISL:1,2019-05-03T02:10:00Z,30.2513,-88.0778,1016.594278,11111222 
DISL,ioos:station:DISL:DISL:1,2019-05-03T02:40:00Z,30.2513,-88.0778,1016.594278,11111222 
DISL,ioos:station:DISL:DISL:1,2019-05-03T03:40:00Z,30.2513,-88.0778,1016.932917,11111222 
DISL,ioos:station:DISL:DISL:1,2019-05-03T05:10:00Z,30.2513,-88.0778,1016.932917,11111222 
DISL,ioos:station:DISL:DISL:1,2019-05-03T05:40:00Z,30.2513,-88.0778,1015.917,11111222 
DISL,ioos:station:DISL:DISL:1,2019-05-03T07:10:00Z,30.2513,-88.0778,1015.917,11111222 
DISL,ioos:station:DISL:DISL:1,2019-05-03T08:10:00Z,30.2513,-88.0778,1015.239722,11111222 
DISL,ioos:station:DISL:DISL:1,2019-05-03T09:10:00Z,30.2513,-88.0778,1015.239722,11111222 
DISL,ioos:station:DISL:DISL:1,2019-05-03T10:10:00Z,30.2513,-88.0778,1015.578361,11111222 
DISL,ioos:station:DISL:DISL:1,2019-05-03T11:10:00Z,30.2513,-88.0778,1015.578361,11111222 
DISL,ioos:station:DISL:DISL:1,2019-05-03T12:10:00Z,30.2513,-88.0778,1015.917,11111222 
DISL,ioos:station:DISL:DISL:1,2019-05-03T13:10:00Z,30.2513,-88.0778,1016.594278,11111222 
DISL,ioos:station:DISL:DISL:1,2019-05-03T14:10:00Z,30.2513,-88.0778,1016.932917,11111222 
DISL,ioos:station:DISL:DISL:1,2019-05-03T15:10:00Z,30.2513,-88.0778,1016.932917,11111222 
DISL,ioos:station:DISL:DISL:1,2019-05-03T16:10:00Z,30.2513,-88.0778,1016.594278,11111222 
DISL,ioos:station:DISL:DISL:1,2019-05-03T17:10:00Z,30.2513,-88.0778,1016.255639,11111222 
DISL,ioos:station:DISL:DISL:1,2019-05-03T18:10:00Z,30.2513,-88.0778,1016.594278,11111222 
DISL,ioos:station:DISL:DISL:1,2019-05-03T19:10:00Z,30.2513,-88.0778,1015.917,11111222 
DISL,ioos:station:DISL:DISL:1,2019-05-03T20:10:00Z,30.2513,-88.0778,1015.239722,11111222 
DISL,ioos:station:DISL:DISL:1,2019-05-03T21:10:00Z,30.2513,-88.0778,1014.223805,11111222 
DISL,ioos:station:DISL:DISL:1,2019-05-03T22:10:00Z,30.2513,-88.0778,1013.885166,11111222 
DISL,ioos:station:DISL:DISL:1,2019-05-03T23:10:00Z,30.2513,-88.0778,1013.885166,11111222 
DISL,ioos:station:DISL:DISL:1,2019-05-03T23:40:00Z,30.2513,-88.0778,1013.546527,11111222 
DISL,ioos:station:DISL:DISL:1,2019-05-04T00:40:00Z,30.2513,-88.0778,1013.207888,11111222 
DISL,ioos:station:DISL:DISL:1,2019-05-04T01:40:00Z,30.2513,-88.0778,1013.546527,11111222 
DISL,ioos:station:DISL:DISL:1,2019-05-04T02:40:00Z,30.2513,-88.0778,1013.546527,11111222 
DISL,ioos:station:DISL:DISL:1,2019-05-04T04:10:00Z,30.2513,-88.0778,1013.207888,11111222 
DISL,ioos:station:DISL:DISL:1,2019-05-04T04:40:00Z,30.2513,-88.0778,1013.207888,11111222 
DISL,ioos:station:DISL:DISL:1,2019-05-04T05:40:00Z,30.2513,-88.0778,1013.546527,11111222 
DISL,ioos:station:DISL:DISL:1,2019-05-04T06:40:00Z,30.2513,-88.0778,1013.546527,11111222 
DISL,ioos:station:DISL:DISL:1,2019-05-04T08:10:00Z,30.2513,-88.0778,1012.191971,11111222 
DISL,ioos:station:DISL:DISL:1,2019-05-04T09:10:00Z,30.2513,-88.0778,1011.853332,11111222 
DISL,ioos:station:DISL:DISL:1,2019-05-04T09:40:00Z,30.2513,-88.0778,1011.514693,11111222 
DISL,ioos:station:DISL:DISL:1,2019-05-04T11:10:00Z,30.2513,-88.0778,1011.514693,11111222 
DISL,ioos:station:DISL:DISL:1,2019-05-04T12:10:00Z,30.2513,-88.0778,1011.853332,11111222 
DISL,ioos:station:DISL:DISL:1,2019-05-04T13:10:00Z,30.2513,-88.0778,1013.207888,11111222 
DISL,ioos:station:DISL:DISL:1,2019-05-04T14:10:00Z,30.2513,-88.0778,1012.869249,11111222 
DISL,ioos:station:DISL:DISL:1,2019-05-04T15:10:00Z,30.2513,-88.0778,1012.191971,11111222 
DISL,ioos:station:DISL:DISL:1,2019-05-04T16:10:00Z,30.2513,-88.0778,1012.191971,11111222 
DISL,ioos:station:DISL:DISL:1,2019-05-04T17:10:00Z,30.2513,-88.0778,1011.176054,11111222 
DISL,ioos:station:DISL:DISL:1,2019-05-04T18:10:00Z,30.2513,-88.0778,1010.498776,11111222 
DISL,ioos:station:DISL:DISL:1,2019-05-04T19:10:00Z,30.2513,-88.0778,1010.498776,11111222 
DISL,ioos:station:DISL:DISL:1,2019-05-04T20:10:00Z,30.2513,-88.0778,1009.482859,11111222 
DISL,ioos:station:DISL:DISL:1,2019-05-04T21:10:00Z,30.2513,-88.0778,1009.14422,11111222 
DISL,ioos:station:DISL:DISL:1,2019-05-04T22:10:00Z,30.2513,-88.0778,1009.14422,11111222 
DISL,ioos:station:DISL:DISL:1,2019-05-04T23:10:00Z,30.2513,-88.0778,1008.805581,11111222 
DISL,ioos:station:DISL:DISL:1,2019-05-04T23:40:00Z,30.2513,-88.0778,1008.805581,11111222 
DISL,ioos:station:DISL:DISL:1,2019-05-05T00:40:00Z,30.2513,-88.0778,1008.128303,11111222 
DISL,ioos:station:DISL:DISL:1,2019-05-05T01:40:00Z,30.2513,-88.0778,1009.14422,11111222 
DISL,ioos:station:DISL:DISL:1,2019-05-05T02:40:00Z,30.2513,-88.0778,1009.14422,11111222 
DISL,ioos:station:DISL:DISL:1,2019-05-05T03:40:00Z,30.2513,-88.0778,1009.821498,11111222 
DISL,ioos:station:DISL:DISL:1,2019-05-05T05:10:00Z,30.2513,-88.0778,1009.821498,11111222 
DISL,ioos:station:DISL:DISL:1,2019-05-05T05:40:00Z,30.2513,-88.0778,1009.482859,11111222 
DISL,ioos:station:DISL:DISL:1,2019-05-05T06:40:00Z,30.2513,-88.0778,1009.14422,11111222 
DISL,ioos:station:DISL:DISL:1,2019-05-05T07:40:00Z,30.2513,-88.0778,1009.482859,11111222 
DISL,ioos:station:DISL:DISL:1,2019-05-05T08:40:00Z,30.2513,-88.0778,1009.482859,11111222 
DISL,ioos:station:DISL:DISL:1,2019-05-05T10:10:00Z,30.2513,-88.0778,1009.482859,11111222 
DISL,ioos:station:DISL:DISL:1,2019-05-05T11:10:00Z,30.2513,-88.0778,1010.160137,11111222 
DISL,ioos:station:DISL:DISL:1,2019-05-05T12:10:00Z,30.2513,-88.0778,1011.176054,11111222 
DISL,ioos:station:DISL:DISL:1,2019-05-05T13:10:00Z,30.2513,-88.0778,1011.176054,11111222 
DISL,ioos:station:DISL:DISL:1,2019-05-05T14:10:00Z,30.2513,-88.0778,1011.853332,11111222 
DISL,ioos:station:DISL:DISL:1,2019-05-05T15:10:00Z,30.2513,-88.0778,1012.53061,11111222 
DISL,ioos:station:DISL:DISL:1,2019-05-05T16:10:00Z,30.2513,-88.0778,1012.869249,11111222 
DISL,ioos:station:DISL:DISL:1,2019-05-05T17:10:00Z,30.2513,-88.0778,1012.869249,11111222 
DISL,ioos:station:DISL:DISL:1,2019-05-05T18:10:00Z,30.2513,-88.0778,1012.191971,11111222 
DISL,ioos:station:DISL:DISL:1,2019-05-05T19:10:00Z,30.2513,-88.0778,1011.514693,11111222 
DISL,ioos:station:DISL:DISL:1,2019-05-05T20:10:00Z,30.2513,-88.0778,1011.176054,11111222 
DISL,ioos:station:DISL:DISL:1,2019-05-05T21:10:00Z,30.2513,-88.0778,1010.160137,11111222 
DISL,ioos:station:DISL:DISL:1,2019-05-05T22:10:00Z,30.2513,-88.0778,1010.160137,11111222 
DISL,ioos:station:DISL:DISL:1,2019-05-05T23:10:00Z,30.2513,-88.0778,1010.837415,11111222 
DISL,ioos:station:DISL:DISL:1,2019-05-05T23:40:00Z,30.2513,-88.0778,1011.176054,11111222 
DISL,ioos:station:DISL:DISL:1,2019-05-06T00:40:00Z,30.2513,-88.0778,1011.176054,11111222 
DISL,ioos:station:DISL:DISL:1,2019-05-06T01:40:00Z,30.2513,-88.0778,1012.191971,11111222 
DISL,ioos:station:DISL:DISL:1,2019-05-06T02:40:00Z,30.2513,-88.0778,1013.207888,11111222 
DISL,ioos:station:DISL:DISL:1,2019-05-06T03:40:00Z,30.2513,-88.0778,1013.207888,11111222 
DISL,ioos:station:DISL:DISL:1,2019-05-06T04:40:00Z,30.2513,-88.0778,1013.207888,11111222 
DISL,ioos:station:DISL:DISL:1,2019-05-06T05:40:00Z,30.2513,-88.0778,1012.191971,11111222 
DISL,ioos:station:DISL:DISL:1,2019-05-06T06:40:00Z,30.2513,-88.0778,1013.546527,11111222 
DISL,ioos:station:DISL:DISL:1,2019-05-06T07:40:00Z,30.2513,-88.0778,1014.223805,11111222 
DISL,ioos:station:DISL:DISL:1,2019-05-06T08:40:00Z,30.2513,-88.0778,1014.223805,11111222 
DISL,ioos:station:DISL:DISL:1,2019-05-06T09:40:00Z,30.2513,-88.0778,1014.901083,11111222 
DISL,ioos:station:DISL:DISL:1,2019-05-06T10:40:00Z,30.2513,-88.0778,1014.223805,11111222 
DISL,ioos:station:DISL:DISL:1,2019-05-06T11:40:00Z,30.2513,-88.0778,1015.239722,11111222 
DISL,ioos:station:DISL:DISL:1,2019-05-06T12:40:00Z,30.2513,-88.0778,1016.255639,11111222 
DISL,ioos:station:DISL:DISL:1,2019-05-06T13:40:00Z,30.2513,-88.0778,1016.932917,11111222 
DISL,ioos:station:DISL:DISL:1,2019-05-06T15:10:00Z,30.2513,-88.0778,1017.271556,11111222 
DISL,ioos:station:DISL:DISL:1,2019-05-06T16:10:00Z,30.2513,-88.0778,1017.271556,11111222 
DISL,ioos:station:DISL:DISL:1,2019-05-06T17:10:00Z,30.2513,-88.0778,1017.610195,11111222 
DISL,ioos:station:DISL:DISL:1,2019-05-06T18:10:00Z,30.2513,-88.0778,1017.271556,11111222 
DISL,ioos:station:DISL:DISL:1,2019-05-06T19:10:00Z,30.2513,-88.0778,1016.932917,11111222 
DISL,ioos:station:DISL:DISL:1,2019-05-06T20:10:00Z,30.2513,-88.0778,1016.594278,11111222 
DISL,ioos:station:DISL:DISL:1,2019-05-06T21:10:00Z,30.2513,-88.0778,1015.917,11111222 
DISL,ioos:station:DISL:DISL:1,2019-05-06T22:10:00Z,30.2513,-88.0778,1016.594278,11111222 
DISL,ioos:station:DISL:DISL:1,2019-05-06T23:10:00Z,30.2513,-88.0778,1016.255639,11111222 
DISL,ioos:station:DISL:DISL:1,2019-05-06T23:40:00Z,30.2513,-88.0778,1016.255639,11111222 
DISL,ioos:station:DISL:DISL:1,2019-05-07T00:40:00Z,30.2513,-88.0778,1016.932917,11111222 
DISL,ioos:station:DISL:DISL:1,2019-05-07T01:40:00Z,30.2513,-88.0778,1017.271556,11111222 
DISL,ioos:station:DISL:DISL:1,2019-05-07T02:40:00Z,30.2513,-88.0778,1017.271556,11111222 
DISL,ioos:station:DISL:DISL:1,2019-05-07T03:40:00Z,30.2513,-88.0778,1017.610195,11111222 
DISL,ioos:station:DISL:DISL:1,2019-05-07T04:40:00Z,30.2513,-88.0778,1016.932917,11111222 
DISL,ioos:station:DISL:DISL:1,2019-05-07T05:40:00Z,30.2513,-88.0778,1016.594278,11111222 
DISL,ioos:station:DISL:DISL:1,2019-05-07T06:40:00Z,30.2513,-88.0778,1016.255639,11111222 
DISL,ioos:station:DISL:DISL:1,2019-05-07T07:40:00Z,30.2513,-88.0778,1015.578361,11111222 
DISL,ioos:station:DISL:DISL:1,2019-05-07T08:40:00Z,30.2513,-88.0778,1015.578361,11111222 
DISL,ioos:station:DISL:DISL:1,2019-05-07T09:40:00Z,30.2513,-88.0778,1016.594278,11111222 
DISL,ioos:station:DISL:DISL:1,2019-05-07T10:40:00Z,30.2513,-88.0778,1017.948834,11111222 
DISL,ioos:station:DISL:DISL:1,2019-05-07T11:40:00Z,30.2513,-88.0778,1018.287473,11111222 
DISL,ioos:station:DISL:DISL:1,2019-05-07T12:40:00Z,30.2513,-88.0778,1019.30339,11111222 
DISL,ioos:station:DISL:DISL:1,2019-05-07T14:10:00Z,30.2513,-88.0778,1019.642029,11111222 
DISL,ioos:station:DISL:DISL:1,2019-05-07T15:10:00Z,30.2513,-88.0778,1019.642029,11111222 
DISL,ioos:station:DISL:DISL:1,2019-05-07T16:10:00Z,30.2513,-88.0778,1019.980668,11111222 
DISL,ioos:station:DISL:DISL:1,2019-05-07T17:10:00Z,30.2513,-88.0778,1019.30339,11111222 
DISL,ioos:station:DISL:DISL:1,2019-05-07T18:10:00Z,30.2513,-88.0778,1018.964751,11111222 
DISL,ioos:station:DISL:DISL:1,2019-05-07T19:10:00Z,30.2513,-88.0778,1018.287473,11111222 
DISL,ioos:station:DISL:DISL:1,2019-05-07T20:10:00Z,30.2513,-88.0778,1017.610195,11111222 
DISL,ioos:station:DISL:DISL:1,2019-05-07T21:10:00Z,30.2513,-88.0778,1016.932917,11111222 
DISL,ioos:station:DISL:DISL:1,2019-05-07T22:10:00Z,30.2513,-88.0778,1016.594278,11111222 
DISL,ioos:station:DISL:DISL:1,2019-05-07T23:10:00Z,30.2513,-88.0778,1016.594278,11111222 
DISL,ioos:station:DISL:DISL:1,2019-05-07T23:40:00Z,30.2513,-88.0778,1016.594278,11111222 
DISL,ioos:station:DISL:DISL:1,2019-05-08T00:40:00Z,30.2513,-88.0778,1016.255639,11111222 
DISL,ioos:station:DISL:DISL:1,2019-05-08T01:40:00Z,30.2513,-88.0778,1016.932917,11111222 
DISL,ioos:station:DISL:DISL:1,2019-05-08T02:40:00Z,30.2513,-88.0778,1017.610195,11111222 
DISL,ioos:station:DISL:DISL:1,2019-05-08T03:40:00Z,30.2513,-88.0778,1016.932917,11111222 
DISL,ioos:station:DISL:DISL:1,2019-05-08T04:39:00Z,30.2513,-88.0778,1016.594278,11111222 
DISL,ioos:station:DISL:DISL:1,2019-05-08T05:39:00Z,30.2513,-88.0778,1015.917,11111222 
DISL,ioos:station:DISL:DISL:1,2019-05-08T06:39:00Z,30.2513,-88.0778,1015.917,11111222 
DISL,ioos:station:DISL:DISL:1,2019-05-08T07:39:00Z,30.2513,-88.0778,1015.578361,11111222 
DISL,ioos:station:DISL:DISL:1,2019-05-08T08:39:00Z,30.2513,-88.0778,1014.223805,11111222 
DISL,ioos:station:DISL:DISL:1,2019-05-08T09:39:00Z,30.2513,-88.0778,1014.562444,11111222 
DISL,ioos:station:DISL:DISL:1,2019-05-08T10:39:00Z,30.2513,-88.0778,1014.223805,11111222 
DISL,ioos:station:DISL:DISL:1,2019-05-08T11:39:00Z,30.2513,-88.0778,1013.885166,11111222 
DISL,ioos:station:DISL:DISL:1,2019-05-08T12:39:00Z,30.2513,-88.0778,1014.562444,11111222 
DISL,ioos:station:DISL:DISL:1,2019-05-08T13:39:00Z,30.2513,-88.0778,1015.239722,11111222 
DISL,ioos:station:DISL:DISL:1,2019-05-08T14:39:00Z,30.2513,-88.0778,1014.901083,11111222 
DISL,ioos:station:DISL:DISL:1,2019-05-08T15:39:00Z,30.2513,-88.0778,1015.239722,11111222 
DISL,ioos:station:DISL:DISL:1,2019-05-08T16:39:00Z,30.2513,-88.0778,1015.578361,11111222 
DISL,ioos:station:DISL:DISL:1,2019-05-08T17:39:00Z,30.2513,-88.0778,1015.239722,11111222 
DISL,ioos:station:DISL:DISL:1,2019-05-08T18:39:00Z,30.2513,-88.0778,1014.562444,11111222 
DISL,ioos:station:DISL:DISL:1,2019-05-08T19:39:00Z,30.2513,-88.0778,1014.223805,11111222 
DISL,ioos:station:DISL:DISL:1,2019-05-08T20:39:00Z,30.2513,-88.0778,1014.223805,11111222 
DISL,ioos:station:DISL:DISL:1,2019-05-08T21:39:00Z,30.2513,-88.0778,1013.207888,11111222 
DISL,ioos:station:DISL:DISL:1,2019-05-08T22:39:00Z,30.2513,-88.0778,1013.546527,11111222 
DISL,ioos:station:DISL:DISL:1,2019-05-08T23:39:00Z,30.2513,-88.0778,1013.546527,11111222 
DISL,ioos:station:DISL:DISL:1,2019-05-09T00:39:00Z,30.2513,-88.0778,1013.207888,11111222 
DISL,ioos:station:DISL:DISL:1,2019-05-09T01:39:00Z,30.2513,-88.0778,1013.207888,11111222 
DISL,ioos:station:DISL:DISL:1,2019-05-09T02:39:00Z,30.2513,-88.0778,1013.546527,11111222 
DISL,ioos:station:DISL:DISL:1,2019-05-09T03:39:00Z,30.2513,-88.0778,1013.546527,11111222 
DISL,ioos:station:DISL:DISL:1,2019-05-09T04:39:00Z,30.2513,-88.0778,1013.885166,11111222 
DISL,ioos:station:DISL:DISL:1,2019-05-09T05:39:00Z,30.2513,-88.0778,1013.885166,11111222 
DISL,ioos:station:DISL:DISL:1,2019-05-09T06:39:00Z,30.2513,-88.0778,1013.546527,11111222 
DISL,ioos:station:DISL:DISL:1,2019-05-09T07:39:00Z,30.2513,-88.0778,1013.207888,11111222 
DISL,ioos:station:DISL:DISL:1,2019-05-09T08:39:00Z,30.2513,-88.0778,1012.869249,11111222 
DISL,ioos:station:DISL:DISL:1,2019-05-09T09:39:00Z,30.2513,-88.0778,1012.53061,11111222 
DISL,ioos:station:DISL:DISL:1,2019-05-09T10:39:00Z,30.2513,-88.0778,1012.869249,11111222 
DISL,ioos:station:DISL:DISL:1,2019-05-09T11:39:00Z,30.2513,-88.0778,1012.869249,11111222 
DISL,ioos:station:DISL:DISL:1,2019-05-09T12:39:00Z,30.2513,-88.0778,1014.223805,11111222 
DISL,ioos:station:DISL:DISL:1,2019-05-09T13:39:00Z,30.2513,-88.0778,1013.885166,11111222 
DISL,ioos:station:DISL:DISL:1,2019-05-09T15:09:00Z,30.2513,-88.0778,1014.562444,11111222 
DISL,ioos:station:DISL:DISL:1,2019-05-09T16:09:00Z,30.2513,-88.0778,1015.239722,11111222 
DISL,ioos:station:DISL:DISL:1,2019-05-09T17:09:00Z,30.2513,-88.0778,1013.885166,11111222 
DISL,ioos:station:DISL:DISL:1,2019-05-09T18:09:00Z,30.2513,-88.0778,1013.885166,11111222 
DISL,ioos:station:DISL:DISL:1,2019-05-09T18:39:00Z,30.2513,-88.0778,1013.885166,11111222 
DISL,ioos:station:DISL:DISL:1,2019-05-09T20:09:00Z,30.2513,-88.0778,1014.223805,11111222 
DISL,ioos:station:DISL:DISL:1,2019-05-09T20:39:00Z,30.2513,-88.0778,1014.223805,11111222 
DISL,ioos:station:DISL:DISL:1,2019-05-09T21:39:00Z,30.2513,-88.0778,1013.885166,11111222 
DISL,ioos:station:DISL:DISL:1,2019-05-09T22:39:00Z,30.2513,-88.0778,1014.562444,11111222 
DISL,ioos:station:DISL:DISL:1,2019-05-09T23:39:00Z,30.2513,-88.0778,1015.578361,11111222 
DISL,ioos:station:DISL:DISL:1,2019-05-10T00:39:00Z,30.2513,-88.0778,1016.255639,11111222 
DISL,ioos:station:DISL:DISL:1,2019-05-10T01:39:00Z,30.2513,-88.0778,1017.271556,11111222 
DISL,ioos:station:DISL:DISL:1,2019-05-10T03:09:00Z,30.2513,-88.0778,1015.917,11111222 
DISL,ioos:station:DISL:DISL:1,2019-05-10T03:39:00Z,30.2513,-88.0778,1015.578361,11111222 
DISL,ioos:station:DISL:DISL:1,2019-05-10T05:09:00Z,30.2513,-88.0778,1014.562444,11111222 
DISL,ioos:station:DISL:DISL:1,2019-05-10T06:10:00Z,30.2513,-88.0778,1013.546527,11111222 
DISL,ioos:station:DISL:DISL:1,2019-05-10T07:09:00Z,30.2513,-88.0778,1012.53061,11111222 
DISL,ioos:station:DISL:DISL:1,2019-05-10T08:10:00Z,30.2513,-88.0778,1012.869249,11111222 
DISL,ioos:station:DISL:DISL:1,2019-05-10T09:10:00Z,30.2513,-88.0778,1012.191971,11111222 
DISL,ioos:station:DISL:DISL:1,2019-05-10T10:10:00Z,30.2513,-88.0778,1013.885166,11111222 
DISL,ioos:station:DISL:DISL:1,2019-05-10T11:10:00Z,30.2513,-88.0778,1014.223805,11111222 
DISL,ioos:station:DISL:DISL:1,2019-05-10T12:10:00Z,30.2513,-88.0778,1014.562444,11111222 
DISL,ioos:station:DISL:DISL:1,2019-05-10T13:10:00Z,30.2513,-88.0778,1016.255639,11111222 
DISL,ioos:station:DISL:DISL:1,2019-05-10T14:10:00Z,30.2513,-88.0778,1016.932917,11111222 
DISL,ioos:station:DISL:DISL:1,2019-05-10T15:10:00Z,30.2513,-88.0778,1017.610195,11111222 
DISL,ioos:station:DISL:DISL:1,2019-05-10T16:10:00Z,30.2513,-88.0778,1017.948834,11111222 
DISL,ioos:station:DISL:DISL:1,2019-05-10T17:10:00Z,30.2513,-88.0778,1017.610195,11111222 
DISL,ioos:station:DISL:DISL:1,2019-05-10T18:10:00Z,30.2513,-88.0778,1017.271556,11111222 
DISL,ioos:station:DISL:DISL:1,2019-05-10T19:10:00Z,30.2513,-88.0778,1015.917,11111222 
DISL,ioos:station:DISL:DISL:1,2019-05-10T20:10:00Z,30.2513,-88.0778,1013.546527,11111222 
DISL,ioos:station:DISL:DISL:1,2019-05-10T21:10:00Z,30.2513,-88.0778,1014.223805,11111222 
DISL,ioos:station:DISL:DISL:1,2019-05-10T22:10:00Z,30.2513,-88.0778,1014.901083,11111222 
DISL,ioos:station:DISL:DISL:1,2019-05-10T23:10:00Z,30.2513,-88.0778,1015.239722,11111222 
DISL,ioos:station:DISL:DISL:1,2019-05-10T23:40:00Z,30.2513,-88.0778,1015.239722,11111222 
DISL,ioos:station:DISL:DISL:1,2019-05-11T00:40:00Z,30.2513,-88.0778,1014.562444,11111222 
DISL,ioos:station:DISL:DISL:1,2019-05-11T01:40:00Z,30.2513,-88.0778,1014.901083,11111222 
DISL,ioos:station:DISL:DISL:1,2019-05-11T02:40:00Z,30.2513,-88.0778,1015.917,11111222 
DISL,ioos:station:DISL:DISL:1,2019-05-11T03:40:00Z,30.2513,-88.0778,1015.917,11111222 
DISL,ioos:station:DISL:DISL:1,2019-05-11T04:40:00Z,30.2513,-88.0778,1015.239722,11111222 
DISL,ioos:station:DISL:DISL:1,2019-05-11T05:40:00Z,30.2513,-88.0778,1014.562444,11111222 
DISL,ioos:station:DISL:DISL:1,2019-05-11T06:40:00Z,30.2513,-88.0778,1011.853332,11111222 
DISL,ioos:station:DISL:DISL:1,2019-05-11T07:40:00Z,30.2513,-88.0778,1013.207888,11111222 
DISL,ioos:station:DISL:DISL:1,2019-05-11T08:40:00Z,30.2513,-88.0778,1013.546527,11111222 
DISL,ioos:station:DISL:DISL:1,2019-05-11T09:40:00Z,30.2513,-88.0778,1012.869249,11111222 
DISL,ioos:station:DISL:DISL:1,2019-05-11T10:40:00Z,30.2513,-88.0778,1012.869249,11111222 
DISL,ioos:station:DISL:DISL:1,2019-05-11T11:40:00Z,30.2513,-88.0778,1012.869249,11111222 
DISL,ioos:station:DISL:DISL:1,2019-05-11T12:40:00Z,30.2513,-88.0778,1014.562444,11111222 
DISL,ioos:station:DISL:DISL:1,2019-05-12T12:40:00Z,30.2513,-88.0778,1009.821498,11111222 
DISL,ioos:station:DISL:DISL:1,2019-05-13T20:39:00Z,30.2513,-88.0778,1011.514693,11111222 
DISL,ioos:station:DISL:DISL:1,2019-05-13T21:39:00Z,30.2513,-88.0778,1011.514693,11111222 
DISL,ioos:station:DISL:DISL:1,2019-05-13T22:39:00Z,30.2513,-88.0778,1011.853332,11111222 
DISL,ioos:station:DISL:DISL:1,2019-05-13T23:39:00Z,30.2513,-88.0778,1012.191971,11111222 
DISL,ioos:station:DISL:DISL:1,2019-05-14T00:39:00Z,30.2513,-88.0778,1012.191971,11111222 
DISL,ioos:station:DISL:DISL:1,2019-05-14T01:39:00Z,30.2513,-88.0778,1013.546527,11111222 
DISL,ioos:station:DISL:DISL:1,2019-05-14T02:39:00Z,30.2513,-88.0778,1013.885166,11111222 
DISL,ioos:station:DISL:DISL:1,2019-05-14T03:39:00Z,30.2513,-88.0778,1014.562444,11111222 
DISL,ioos:station:DISL:DISL:1,2019-05-14T04:39:00Z,30.2513,-88.0778,1014.562444,11111222 
DISL,ioos:station:DISL:DISL:1,2019-05-14T05:39:00Z,30.2513,-88.0778,1014.562444,11111222 
DISL,ioos:station:DISL:DISL:1,2019-05-14T06:39:00Z,30.2513,-88.0778,1014.562444,11111222 
DISL,ioos:station:DISL:DISL:1,2019-05-14T07:39:00Z,30.2513,-88.0778,1013.885166,11111222 